Temp
19 20 20 19 20 19 19 18 18 19 19 19 19 19 19 18 18 18 18 18 18 18 18 18 18 18 18 18 18 18 18 19 19 19 19 19 19 18 18 19 19 19 19
20 20 20 20 19 18 18 19 19 19 19 19 19 19 19 18 18 18 18 18 18 18 18 18 18 18 18 18 18 18 18 18 19 19 19 19 19 19 18 18 19 19 19
20 20 20 19 18 18 19 19 19 18 18 18 18 17 17 17 17 16 16 16 16 16 16 16 17 17 17 17 18 18 18 18 18 18 18 19 19 19 19 19 19 19 18
19 19 19 19 19 19 18 18 18 18 18 17 17 17 16 16 17 17 17 18 18 17 17 17 17 17 17 17 17 17 17 17 18 18 18 18 18 19 19 18 19 19 19
19 19 19 19 19 18 18 18 18 18 18 18 18 18 17 17 17 17 17 17 17 17 16 15 16 16 17 18 18 17 17 17 17 18 18 18 18 19 19 19 19 19 19
19 19 19 19 18 18 18 18 18 18 18 18 18 17 15 15 14 14 15 16 15 14 14 14 14 14 15 15 16 17 18 18 17 17 18 18 18 18 17 18 18 18 18
18 18 18 18 18 18 18 18 18 18 19 18 17 15 14 14 14 14 14 14 14 14 14 14 15 15 15 15 15 16 16 17 17 18 18 18 18 18 18 18 18 18 18
19 18 17 17 18 18 18 18 19 18 18 16 15 15 14 14 14 14 14 14 14 14 14 14 15 15 15 15 15 16 16 16 17 17 18 18 18 18 18 18 18 17 17
18 18 18 18 18 18 19 19 18 17 16 16 16 16 15 15 15 15 14 13 13 14 14 14 14 14 14 15 15 15 16 16 16 16 16 17 17 17 17 17 17 17 17
17 18 18 18 18 18 18 18 17 16 16 16 16 15 15 15 15 15 14 14 13 13 13 13 13 14 15 15 15 15 15 16 16 16 16 16 16 16 16 16 16 16 16
16 17 17 18 18 18 17 16 16 16 15 16 16 15 15 15 14 14 14 14 14 14 14 14 14 14 14 14 15 15 15 15 15 15 15 15 16 16 15 15 15 15 15
16 17 17 18 17 17 17 16 16 16 16 15 15 15 15 15 14 14 14 14 14 14 14 14 14 14 14 14 14 15 14 14 15 15 14 14 15 15 15 15 15 15 15
16 16 17 17 16 16 16 16 16 16 16 16 15 15 15 15 15 14 15 14 14 14 14 14 14 13 14 14 14 14 14 14 14 14 13 13 13 14 14 14 14 14 14
16 16 16 16 16 16 16 16 15 15 15 16 15 15 15 15 15 14 14 14 14 14 14 14 14 13 13 14 14 14 14 14 13 13 13 13 13 13 13 13 13 13 14
16 16 16 16 16 16 16 15 15 15 15 15 15 15 15 15 15 14 14 14 14 14 14 14 13 13 13 13 14 14 14 13 13 13 13 13 13 12 12 12 12 12 13
16 16 16 16 16 16 16 16 15 15 15 15 15 15 14 14 14 14 14 14 14 13 13 13 13 13 13 13 13 13 13 12 13 12 12 12 12 11 11 11 11 11 11
16 16 16 16 15 15 15 15 15 15 15 15 14 14 14 14 14 14 14 14 13 13 13 13 13 13 13 13 13 12 12 12 12 12 12 12 11 11 10 9 10 10 10
16 16 16 15 15 15 15 15 15 14 14 14 14 14 14 14 14 14 14 13 13 13 13 13 13 13 13 13 12 12 12 12 12 12 12 11 11 10 10 10 9 8 8
16 16 15 15 15 15 15 14 14 14 14 14 14 13 14 13 13 13 13 13 13 13 13 13 13 13 12 12 12 12 12 11 11 11 11 11 10 10 10 10 9 9 8
16 16 15 15 15 15 14 14 14 14 14 13 13 13 13 13 13 13 13 13 13 13 13 13 12 12 12 12 12 12 12 11 11 11 11 11 10 10 9 9 9 9 8
15 15 15 15 14 14 14 14 13 14 14 13 13 13 13 13 13 13 13 13 12 12 12 12 12 12 12 11 12 12 11 11 11 11 10 10 10 10 9 9 9 9 8
16 15 14 15 14 14 14 14 14 14 14 14 13 13 13 13 13 13 12 12 12 12 12 11 11 11 11 10 10 8 7 10 11 11 10 10 10 9 9 9 8 8 8
15 15 14 15 15 14 14 14 14 14 14 14 13 13 13 13 13 12 12 12 12 11 11 11 10 10 10 10 9 9 7 7 6 10 10 10 9 9 9 9 8 8 8
15 15 15 15 14 14 14 14 14 14 14 14 13 13 13 13 13 12 12 12 12 11 11 10 10 10 9 9 9 9 9 8 6 6 9 9 9 9 9 8 8 7 7
15 15 15 14 14 14 14 14 14 14 13 13 13 13 13 13 13 12 12 12 11 11 11 10 10 10 9 9 9 9 8 8 8 6 5 7 9 9 9 8 7 7 7
15 15 15 14 14 14 14 13 13 13 13 13 13 13 13 13 12 12 12 11 11 11 11 10 10 9 9 9 8 8 8 7 7 6 3 4 5 8 8 8 8 7 6
Height
807 811 814 817 818 820 821 823 824 825 826 826 825 825 825 825 825 825 825 824 824 824 823 822 821 820 819 819 818 817 816 815 814 813 813 813 813 812 812 811 810 810 809
804 810 814 817 819 821 822 824 825 826 827 827 827 827 827 827 826 826 826 826 825 825 824 823 822 821 821 820 819 817 816 816 815 814 813 813 813 812 812 812 811 810 810
805 810 814 817 820 822 823 825 826 826 827 828 828 828 827 827 827 826 826 826 825 825 824 823 822 821 820 819 818 817 816 816 815 814 814 813 813 812 812 812 811 811 810
805 810 813 817 820 823 825 825 826 827 828 828 829 829 828 828 827 826 826 825 825 824 824 823 822 821 820 819 818 817 816 815 814 814 814 813 812 812 812 811 811 811 810
807 810 813 818 821 823 825 826 827 828 828 828 829 829 829 828 827 826 826 825 824 824 823 822 821 820 819 818 817 816 815 814 814 813 813 812 811 811 810 810 810 810 810
808 812 814 818 821 823 825 827 828 828 828 828 828 829 829 828 828 827 826 825 824 824 823 822 821 820 818 817 816 815 814 813 812 812 811 810 810 809 809 809 809 810 810
809 813 816 818 820 824 825 827 828 828 828 828 828 829 830 829 829 828 827 827 826 825 824 823 822 821 820 819 817 815 813 812 811 810 810 809 809 808 808 808 808 809 809
808 814 817 820 822 824 826 827 828 829 829 829 830 830 831 830 830 829 828 828 827 825 824 824 823 821 820 819 817 815 813 812 811 809 808 808 808 808 808 807 808 808 808
811 814 818 820 823 825 826 828 829 830 830 830 831 831 831 831 831 830 829 829 828 826 825 824 823 821 820 819 818 816 814 813 812 811 809 808 808 808 807 808 808 808 807
814 816 818 822 824 826 827 829 830 831 832 831 832 832 832 832 832 831 830 830 829 826 824 824 822 822 821 819 818 817 815 815 813 812 811 810 809 809 808 808 808 808 807
815 817 820 822 824 826 828 829 831 832 833 833 832 833 833 833 833 832 831 830 829 826 824 824 822 822 822 820 819 818 816 815 815 813 813 812 811 811 809 809 809 809 808
815 819 822 824 826 827 828 831 833 833 834 834 834 834 834 833 834 833 832 831 829 827 826 824 823 823 822 821 820 818 817 817 816 815 815 814 813 812 811 811 810 809 808
816 820 823 825 828 829 831 832 833 834 835 834 835 835 835 834 834 835 832 831 830 828 827 825 823 824 823 822 821 819 819 818 817 816 816 816 815 814 813 813 812 811 809
817 820 823 826 829 830 832 833 835 836 835 835 836 836 836 836 834 835 832 832 831 829 828 826 825 825 824 823 821 821 820 820 820 818 817 817 816 816 814 814 814 813 811
818 821 824 826 829 831 833 834 836 838 836 836 837 837 837 837 836 836 832 832 832 830 828 828 827 826 825 824 822 823 821 822 822 820 818 818 817 816 815 815 814 814 813
819 822 824 827 830 832 833 834 836 838 837 837 838 838 838 838 837 837 833 834 833 831 830 829 827 826 826 825 824 822 822 823 822 822 821 819 818 817 817 817 816 815 815
818 822 824 828 830 832 834 835 837 838 838 837 838 839 839 838 837 837 835 835 834 833 832 831 829 827 827 826 825 824 823 823 823 823 822 820 818 818 818 818 818 818 816
818 820 825 828 830 832 834 836 836 837 838 838 839 840 840 839 838 837 836 836 835 834 833 832 830 828 828 827 827 825 824 824 824 825 824 822 820 820 819 818 818 818 817
815 819 824 827 829 832 834 836 836 837 839 840 840 841 840 839 839 838 837 836 835 834 834 832 831 829 829 828 827 826 825 825 825 825 824 823 822 822 821 820 819 817 817
815 820 824 827 829 831 834 835 836 837 838 840 840 840 839 839 838 837 837 836 835 835 835 833 832 831 830 828 826 826 825 824 824 825 824 823 823 823 823 822 820 818 817
817 821 822 826 828 830 832 834 835 835 837 839 839 840 839 838 838 838 836 836 835 835 835 833 832 832 831 829 827 826 824 824 824 824 823 823 823 823 823 823 822 819 817
814 822 822 824 827 829 831 834 834 834 835 837 838 838 838 838 838 837 837 835 835 835 834 834 833 832 831 831 830 829 829 826 824 823 823 822 822 822 822 821 821 821 819
814 817 821 823 827 828 831 833 833 833 834 835 837 838 837 837 837 836 836 835 834 834 834 833 833 833 832 832 832 832 832 832 827 823 823 822 822 821 821 820 819 819 819
812 815 819 823 826 828 830 831 833 833 833 835 836 837 836 835 835 835 834 834 833 833 833 832 832 832 831 832 832 832 832 831 830 828 823 823 824 822 821 820 819 816 818
809 815 818 822 825 827 829 831 833 833 833 834 835 835 835 834 833 832 832 832 832 832 831 831 830 830 829 829 829 829 828 827 827 827 826 820 820 820 820 820 820 817 814
810 814 816 820 823 826 828 829 831 832 832 833 833 833 833 833 832 831 830 830 829 828 827 827 827 827 828 828 828 828 827 827 825 826 827 823 821 817 816 816 815 816 814
Wind_Speed
20 21 18 16 15 13 11 11 10 11 9 8 8 7 7 7 7 7 7 7 7 7 6 7 6 6 7 6 6 7 7 7 7 6 5 3 3 4 5 7 9 7 6
28 22 19 17 15 13 12 11 11 9 8 10 10 9 8 8 8 8 8 7 6 7 7 8 8 5 5 5 6 6 6 6 5 5 5 3 3 4 3 5 7 7 6
28 24 20 17 15 13 12 11 11 10 9 10 10 9 9 9 10 9 7 8 8 9 9 9 9 7 6 6 6 7 6 7 6 5 6 4 4 6 4 5 6 6 5
29 25 22 17 15 13 12 11 10 8 7 7 7 7 7 6 5 5 4 5 5 5 6 6 7 7 7 6 6 7 7 6 5 5 6 5 5 7 5 5 5 6 6
28 25 21 17 16 14 12 10 8 7 6 5 4 4 5 5 6 5 5 5 6 6 7 8 8 8 7 8 7 8 8 8 7 6 6 5 6 6 6 6 5 6 7
27 23 21 20 16 14 11 8 7 6 5 4 4 5 7 8 9 8 8 8 9 10 10 10 10 11 10 10 8 8 8 8 8 7 7 6 6 6 8 11 8 7 9
27 24 22 20 17 13 11 8 6 5 5 5 7 9 10 10 10 10 11 11 11 11 11 11 11 12 12 12 10 8 8 8 9 8 8 8 8 8 9 10 10 8 9
30 24 20 17 15 13 9 7 6 5 7 9 11 11 10 10 11 11 11 10 10 11 11 12 11 11 11 11 12 11 10 10 10 7 6 7 7 8 8 6 5 6 9
27 25 20 17 14 11 9 8 8 9 11 10 9 10 10 9 9 10 10 10 10 11 11 11 12 12 11 10 10 10 11 11 10 14 15 11 8 8 6 5 4 6 6
24 22 19 15 12 11 10 11 12 11 9 9 8 8 8 8 7 8 9 9 9 10 11 11 11 10 9 9 9 10 11 11 11 12 13 13 14 13 12 11 10 11 11
21 19 16 15 13 13 13 13 11 9 8 8 8 7 7 8 7 8 9 9 10 10 10 10 10 9 8 8 9 10 11 11 11 13 14 14 14 12 12 11 11 9 9
21 18 15 15 15 14 12 11 10 8 7 6 7 7 6 7 6 7 8 9 10 11 10 11 11 9 8 9 9 9 11 10 10 10 12 12 13 13 14 14 13 12 12
21 18 16 14 13 12 11 10 9 7 6 7 6 6 5 6 6 7 9 10 11 12 12 12 12 11 10 9 9 9 8 8 10 11 12 13 13 11 10 11 11 12 13
20 18 16 13 12 11 10 10 7 5 6 7 6 6 5 5 8 7 10 11 11 13 13 14 13 11 10 8 9 9 9 8 9 12 12 13 13 13 10 11 12 12 13
20 18 16 14 13 12 11 9 7 6 6 7 6 6 6 6 7 7 10 10 11 13 14 13 12 12 10 10 7 6 7 8 10 11 11 11 13 14 12 13 13 14 14
19 17 16 15 14 12 11 10 8 6 6 7 6 6 6 6 7 7 10 10 11 13 13 13 12 12 10 9 9 8 8 8 7 8 10 12 12 12 14 14 14 13 14
20 18 16 15 14 12 11 10 8 6 6 6 6 5 5 6 7 7 9 9 10 11 11 11 10 11 9 8 6 8 8 6 6 7 9 11 11 11 11 13 12 12 12
21 19 16 15 14 13 11 9 9 7 5 5 5 3 3 5 5 6 7 8 9 9 10 11 12 11 12 7 5 4 5 5 4 5 7 10 11 12 13 13 11 11 12
22 19 18 16 15 13 11 9 8 6 5 4 4 2 2 3 4 5 5 6 7 8 9 11 11 11 11 11 3 2 2 2 2 3 5 7 9 10 12 14 13 11 11
21 20 18 16 14 12 11 10 8 7 7 5 4 2 0 1 3 3 4 5 6 7 8 9 10 9 8 13 4 2 4 2 1 0 1 3 5 6 9 12 13 13 12
19 19 19 17 16 15 14 11 9 8 8 6 5 4 2 2 3 4 5 5 6 7 8 9 10 9 7 13 5 2 1 4 4 3 4 3 3 4 7 9 12 13 12
22 20 19 18 17 16 13 10 5 7 8 6 6 6 4 3 3 5 6 7 7 8 8 8 8 8 6 9 6 3 3 2 4 5 6 4 6 5 5 7 10 11 12
23 23 21 18 18 16 14 11 7 7 5 7 7 6 4 3 4 5 7 7 8 9 9 8 8 7 7 5 8 2 2 2 5 2 4 5 6 8 7 7 8 8 9
24 20 19 19 17 17 14 13 11 9 7 6 4 3 3 3 4 6 9 10 10 10 10 9 9 8 7 7 6 3 4 4 1 4 3 5 7 9 10 10 10 6 6
21 21 20 18 17 16 16 14 12 10 7 5 5 4 5 5 7 7 9 11 13 13 12 11 10 9 9 8 7 5 4 5 6 4 3 4 6 8 10 13 14 10 6
19 19 18 18 19 18 17 15 13 11 8 7 5 6 7 7 6 8 10 11 11 12 13 13 12 11 11 11 11 11 10 6 3 3 2 4 6 11 11 13 12 13 10
Wind_Direction
166 159 161 156 152 143 133 125 118 104 99 92 87 87 82 82 77 70 62 55 53 48 38 36 34 26 18 15 17 15 13 16 19 17 11 2 8 13 5 10 4 3 11
156 158 160 151 148 140 135 128 117 117 109 97 83 82 78 73 72 62 61 52 37 38 35 35 36 19 353 344 345 349 346 351 0 3 2 7 355 332 306 333 354 351 348
155 154 156 154 147 142 133 126 125 115 109 96 84 77 71 66 62 57 48 44 36 31 28 22 20 5 357 14 2 340 315 316 326 341 345 341 347 341 298 299 335 341 333
154 155 154 153 144 135 134 136 128 119 110 97 87 77 69 62 54 41 31 20 8 0 0 354 347 334 329 325 326 338 351 346 327 324 327 325 328 329 290 278 324 332 324
154 154 151 144 141 140 141 135 130 122 115 106 92 79 65 56 44 42 35 25 21 16 12 10 359 346 327 314 305 307 316 320 321 317 312 304 297 314 271 265 299 310 312
150 150 146 147 155 150 148 144 136 126 116 109 96 80 74 68 58 55 48 45 46 42 38 34 28 22 17 4 341 318 309 305 301 295 292 292 286 291 311 257 268 294 314
148 149 151 153 150 150 147 142 134 128 120 109 97 90 84 80 64 60 58 55 54 46 43 38 30 28 26 23 11 7 0 343 319 300 289 287 285 291 309 312 254 279 297
151 151 151 148 151 151 147 140 131 124 115 107 102 95 86 81 68 63 57 50 45 38 38 30 29 26 22 21 23 20 18 13 9 358 323 294 288 309 321 325 257 291 296
151 153 151 152 152 148 144 137 129 121 117 115 106 95 85 83 69 59 57 47 42 47 43 36 28 24 25 29 25 23 24 26 45 54 53 49 57 53 30 12 351 341 354
152 149 150 150 148 144 138 132 130 124 118 115 112 104 83 81 72 58 57 50 46 44 43 38 31 25 28 29 32 26 28 49 57 58 56 55 51 49 45 40 28 21 15
146 147 150 149 145 140 136 132 131 125 121 115 111 113 94 86 71 61 53 41 38 37 37 34 30 30 27 41 40 32 46 60 61 61 61 52 45 40 40 33 26 19 16
147 147 149 145 145 145 142 141 139 132 125 117 114 114 98 88 73 57 52 44 40 40 40 38 35 31 31 35 42 41 50 63 68 65 61 56 47 40 36 41 40 38 38
154 157 158 153 151 151 150 150 146 133 123 119 113 108 95 92 81 57 52 47 43 43 40 38 38 32 28 33 39 48 54 75 77 74 64 52 48 43 35 36 40 42 46
157 158 162 163 166 165 163 154 151 152 129 114 112 101 94 85 69 57 52 47 43 43 39 36 36 34 30 41 46 49 69 78 78 76 67 50 39 34 39 40 32 36 36
160 160 163 166 170 167 168 165 161 158 130 115 105 99 86 75 67 56 54 48 44 39 37 34 35 32 37 46 49 50 75 96 86 67 55 43 33 45 45 40 31 27 25
170 169 166 168 175 175 174 164 166 157 131 117 105 93 83 73 66 56 56 49 44 39 33 30 32 34 36 53 63 76 98 109 78 59 50 34 34 48 52 47 42 39 30
177 176 174 177 178 178 176 169 166 156 141 127 114 95 82 67 59 53 51 45 42 37 31 31 37 39 37 54 63 83 102 89 73 50 29 27 33 39 47 44 39 34 34
179 179 178 181 179 179 179 177 169 161 153 144 137 122 93 57 52 46 44 39 35 29 24 24 27 36 29 32 60 105 106 98 66 35 32 37 50 51 44 33 27 30 29
186 181 184 185 182 178 176 175 171 171 173 174 167 153 84 48 36 34 33 29 25 20 16 20 22 20 13 17 9 175 141 124 63 43 42 45 43 43 37 31 28 23 20
186 188 189 186 184 179 180 180 180 183 193 196 192 201 41 359 3 9 12 8 9 7 5 8 11 10 2 3 5 244 213 198 214 268 22 29 23 24 21 23 25 24 17
193 192 190 190 188 188 185 183 193 197 204 210 213 224 265 307 316 335 352 350 349 349 350 352 355 353 356 3 359 334 250 225 222 243 258 274 308 338 355 5 11 16 22
192 204 196 197 198 196 198 200 203 197 206 220 230 234 261 276 303 337 339 338 334 331 330 333 342 343 346 1 3 341 352 306 256 285 245 255 261 277 314 338 353 2 12
197 198 207 202 207 204 203 211 207 188 197 218 235 244 248 283 310 325 327 327 327 320 316 319 324 330 343 347 360 358 354 303 322 318 233 249 262 265 278 292 319 340 357
204 207 210 212 212 209 212 217 218 218 214 221 218 233 254 283 296 304 303 304 304 307 315 315 311 309 318 322 338 298 291 280 291 328 311 256 298 283 282 285 287 302 332
207 213 213 214 216 217 220 220 227 228 214 209 229 262 283 286 295 306 308 305 297 289 294 302 300 291 283 281 273 278 276 273 253 215 275 309 306 291 297 286 280 276 292
213 216 217 218 221 220 221 221 229 227 221 221 242 272 280 287 302 313 311 307 300 291 285 285 287 286 281 277 273 271 264 263 267 246 260 285 278 302 303 290 270 265 268